Location: Newark
(4.2170°N, 12.9170°E)
Time: 18:29:45
(UTC+00:00)

Envisat - Visible Passes

Search period start: 21 November 2019 00:00
Search period end: 01 December 2019 00:00
Orbit: 764 x 766 km, 98.1° (Epoch: 21 November)

Date Brightness Start Highest point End Pass type
(mag) Time Alt. Az. Time Alt. Az. Time Alt. Az.
21 Nov 2.9 17:31:42 10° SSE 17:36:48 85° ENE 17:41:51 10° N visible
22 Nov 5.9 18:35:51 10° SW 18:38:54 16° WSW 18:41:58 10° WNW visible
23 Nov 4.1 17:57:23 10° S 18:02:13 45° WSW 18:07:02 10° NNW visible
24 Nov 3.0 17:20:32 10° SSE 17:25:33 62° ENE 17:30:33 10° N visible
25 Nov 5.5 18:23:48 10° SSW 18:27:39 22° WSW 18:31:30 10° NW visible
26 Nov 3.5 17:45:58 10° S 17:50:58 63° WSW 17:55:59 10° NNW visible
27 Nov 6.2 04:38:04 10° ENE 04:40:55 15° ESE 04:43:45 10° SE visible
27 Nov 3.3 17:09:29 10° SSE 17:14:18 45° ENE 17:19:07 10° N visible
28 Nov 5.0 18:12:01 10° SSW 18:16:24 30° WSW 18:20:46 10° NW visible
29 Nov 3.0 17:34:38 10° S 17:39:44 86° W 17:44:48 10° NNW visible
30 Nov 6.7 04:28:35 10° E 04:29:40 11° ESE 04:30:46 10° ESE visible
30 Nov 6.0 18:39:12 10° SW 18:41:50 14° WSW 18:44:28 10° WNW visible
